This is the latest recevied weather packets stored in our database for station/object HB9HFD-13. If no packets are shown the sender has not sent any weather packets the latest 10 day(s).
| Time | Temp. | Humidity | Pressure | Rain* | Wind** | Luminosity | Snow |
|---|---|---|---|---|---|---|---|
| 1788012468 | 26.67° C | 43% | 1015.3 hPa | 0 mm | - | - | - |
| 1788012168 | 26.67° C | 45% | 1015.3 hPa | 0 mm | - | - | - |
| 1788011867 | 26.67° C | 42% | 1015.4 hPa | 0 mm | - | - | - |
| 1788011567 | 27.78° C | 42% | 1015.4 hPa | 0 mm | - | - | - |
| 1788011267 | 27.22° C | 45% | 1015.4 hPa | 0 mm | - | - | - |
| 1788010966 | 26.67° C | 46% | 1015.5 hPa | 0 mm | - | - | - |
| 1788010666 | 25.56° C | 46% | 1015.6 hPa | 0 mm | - | - | - |
| 1788010366 | 25.56° C | 45% | 1015.5 hPa | 0 mm | - | - | - |
| 1788010066 | 25.56° C | 46% | 1015.5 hPa | 0 mm | - | - | - |
| 1788009765 | 26.11° C | 44% | 1015.7 hPa | 0 mm | - | - | - |
| 1788009465 | 26.11° C | 43% | 1015.6 hPa | 0 mm | - | - | - |
| 1788009165 | 26.67° C | 45% | 1015.5 hPa | 0 mm | - | - | - |
| 1788008865 | 26.67° C | 44% | 1015.6 hPa | 0 mm | - | - | - |
| 1788008565 | 25.56° C | 49% | 1015.5 hPa | 0 mm | - | - | - |
| 1788008264 | 25° C | 46% | 1015.7 hPa | 0 mm | - | - | - |
| 1788007964 | 25.56° C | 47% | 1015.7 hPa | 0 mm | - | - | - |
| 1788007663 | 25° C | 48% | 1015.7 hPa | 0 mm | - | - | - |
| 1788007363 | 25.56° C | 46% | 1015.7 hPa | 0 mm | - | - | - |
| 1788007063 | 25.56° C | 47% | 1015.7 hPa | 0 mm | - | - | - |
| 1788006763 | 25.56° C | 47% | 1015.7 hPa | 0 mm | - | - | - |
| 1788006462 | 25° C | 48% | 1015.7 hPa | 0 mm | - | - | - |
| 1788006162 | 25° C | 48% | 1015.7 hPa | 0 mm | - | - | - |
| 1788005862 | 25.56° C | 44% | 1015.8 hPa | 0 mm | - | - | - |
| 1788005562 | 26.11° C | 45% | 1015.8 hPa | 0 mm | - | - | - |
| 1788005261 | 26.11° C | 45% | 1015.8 hPa | 0 mm | - | - | - |
* Rain latest hour (hover to see other rain measurements)
** Current wind speed in m/s (hover to see current wind gust speed)